星链-32515 (STARLINK-32515)

导读

STARLINK-32515是美国SpaceX公司星链(Starlink)互联网星座的成员,于2024年10月30日发射入轨。星链星座旨在为全球提供低延迟宽带互联网服务,尤其覆盖偏远网络空白区域。 作为量产低轨卫星,STARLINK-32515采用平板设计,搭载氪工质霍尔推进器,具备自主避撞能力,寿命末期会主动离轨再入大气层烧毁,是SpaceX推进全球卫星互联网覆盖的重要一环。

基本信息
目录编号:
61705
目录名称:
STARLINK-32515
国际标识:
2024-195U
轨道中心:
EARTH
卫星名称:
星链-32515
卫星全名:
星链-32515 (STARLINK-32515)
卫星状态:
在轨 (已飞行674 天)
发射日期:
2024-10-30 UTC
国别 :
美国 (US)
星等 :
--
轨道信息
数据来源 国际轨道数据
星历时间: 2026-09-04T03:50:41+0800
10小时前
查看轨道信息
半长轴: 6840.901km
偏心率: 0.0000972
轨道倾角: 53.162°
近地点辐角 70.565°
升交点赤经 47.322°
平近点角 289.546°
近地点: 462.099km
远地点: 463.429km
周期: 93.849分钟
每日圈数: 15.343797
详细信息
固有亮度:
5
最大亮度:
2.5
卫星平台:
Starlink V1.0
覆盖范围:
全球
运营商:
太空探索技术公司
运营商所在国:
美国
制造商(研发单位):
太空探索技术公司
制造商所在国:
美国
使用方式:
暂无
卫星简介
Starlink 计划是 SpaceX 推出的全球卫星互联网项目,通过发射低轨道卫星,为全球尤其是偏远地区提供高速、低延迟的互联网服务。自 2019 年起,Starlink 已部署数千颗卫星,旨在缩小全球数字鸿沟,推动互联网普及。该项目还为军事、航空等行业提供通信支持,带来广泛经济效益。
2D轨道图
3D轨道图
轨道高度分析图
轨道倾角分析图
轨道综合分析图
查看轨道综合分析图
交会数据列表
事件ID 空间交会对象 最接近时刻(TCA) 交会距离 交会风险概率(CRP) 交会风险指数(CRI) 操作
CDM_260905-002406-170506-807221
2026-09-05T
00:24:00+0000
0.770 km
远距离
1.771386E-5 中风险 0.6
CDM_260904-163704-777106-170521
2026-09-04T
16:37:17+0000
1.438 km
极远距离
3.667247E-6 低风险 0.46
CDM_260904-202906-170506-807221
2026-09-04T
20:29:31+0000
1.389 km
极远距离
2.452598E-6 低风险 0.43
CDM_260904-185506-170506-807221
2026-09-04T
18:55:43+0000
1.427 km
极远距离
2.254953E-6 低风险 0.42
CDM_260827-232006-170506-807221
2026-08-27T
23:20:13+0000
1.497 km
极远距离
1.95405E-6 低风险 0.41
CDM_260904-225006-170506-807221
2026-09-04T
22:50:13+0000
1.760 km
极远距离
1.244283E-6 低风险 0.37
CDM_260903-201605-315906-170521
2026-09-03T
20:16:50+0000
2.409 km
极远距离
8.365473E-7 极低风险 0.33
CDM_260903-210305-315906-170521
2026-09-03T
21:03:44+0000
2.742 km
极远距离
6.882605E-7 极低风险 0.32
CDM_260827-214606-170506-807221
2026-08-27T
21:46:26+0000
2.494 km
极远距离
6.054413E-7 极低风险 0.31